CW9197 Juva FI current weather conditions

sailwx.info

Wind from 359

Air temperature 13.9° C
Dewpoint 13.7° C

Last reported at 2020-Aug-05 04:00 UTC.
Time now 2020-Aug-05 05:16 UTC

Location: N 61°53' E 027°53'.
View on Google Maps.

See reports from other nearby stations

  
Tides and Currents Weather Stations Pressure Air Temp Water Temp Dewpoint Dewpoint Depression Visibility Wind Speed Wind Dir Waves Ship Positions
date/time (UTC)wind fromknots sea level pressurealtimeterstation pressurevisibilityair tempwater tempwave heightnotes
2020-Aug-05 04:00 359 13.9
2020-Aug-05 03:50 294 0 gusting 5 13.9
2020-Aug-05 03:40 310 0 gusting 3 13.3
2020-Aug-05 03:30 311 0 gusting 2 13.3
2020-Aug-05 03:20 059 13.3
2020-Aug-05 03:10 004 13.3
2020-Aug-05 03:00 045 13.3
2020-Aug-05 02:50 035 13.3
2020-Aug-05 02:40 058 13.3
2020-Aug-05 02:30 13.3
2020-Aug-05 02:20 360 13.9
2020-Aug-05 02:10 347 0 gusting 4 13.9
2020-Aug-05 02:00 314 0 gusting 3 14.4
2020-Aug-05 01:50 002 0 gusting 2 14.4
2020-Aug-05 01:40 332 0 gusting 3 14.4
2020-Aug-05 01:30 320 0 gusting 2 14.4
2020-Aug-05 01:20 330 0 gusting 3 14.4
2020-Aug-05 01:10 003 0 gusting 2 14.4
2020-Aug-05 01:00 334 0 gusting 3 14.4
2020-Aug-05 00:50 006 0 gusting 1 14.4
2020-Aug-05 00:40 334 0 gusting 2 14.4
2020-Aug-05 00:30 346 0 gusting 3 14.4
2020-Aug-05 00:20 356 14.4
2020-Aug-05 00:10 347 2 gusting 6 15.0
2020-Aug-05 00:00 355 0 gusting 3 15.0
2020-Aug-04 23:50 15.0
2020-Aug-04 23:40 15.0
2020-Aug-04 23:30 15.0
2020-Aug-04 23:20 15.0
2020-Aug-04 23:10 15.0
2020-Aug-04 23:00 15.0
2020-Aug-04 22:50 15.0
2020-Aug-04 22:40 15.0
2020-Aug-04 22:30 15.0
2020-Aug-04 22:20 064 15.0
2020-Aug-04 22:10 15.0
2020-Aug-04 22:00 15.0
2020-Aug-04 21:50 15.6
2020-Aug-04 21:40 15.6
2020-Aug-04 21:30 15.6
2020-Aug-04 21:20 177 15.6
2020-Aug-04 21:10 15.6
2020-Aug-04 21:00 168 15.6
2020-Aug-04 20:50 184 0 gusting 3 15.6
2020-Aug-04 20:40 180 1 gusting 4 15.6
2020-Aug-04 20:30 181 1 gusting 4 15.6
2020-Aug-04 20:20 186 1 gusting 5 15.6
2020-Aug-04 20:10 184 1 gusting 5 15.6
2020-Aug-04 20:00 179 2 gusting 5 15.6
2020-Aug-04 19:50 184 0 gusting 3 15.6
2020-Aug-04 19:40 184 1 gusting 5 15.6
2020-Aug-04 19:30 188 2 gusting 6 15.6
2020-Aug-04 19:20 173 2 gusting 6 16.1
2020-Aug-04 19:10 178 2 gusting 5 16.1
2020-Aug-04 19:00 183 2 gusting 6 16.1
2020-Aug-04 18:50 183 3 gusting 6 16.1
2020-Aug-04 18:40 169 1 gusting 3 16.1
2020-Aug-04 18:30 180 2 gusting 6 16.7
2020-Aug-04 18:20 180 1 gusting 4 16.7
2020-Aug-04 18:10 175 2 gusting 6 16.7
2020-Aug-04 18:00 182 3 gusting 7 16.7
2020-Aug-04 17:50 180 3 gusting 6 16.7
2020-Aug-04 17:40 181 3 gusting 7 16.7
2020-Aug-04 17:30 203 2 gusting 4 17.2
2020-Aug-04 17:20 189 2 gusting 5 17.2
2020-Aug-04 17:10 195 1 gusting 3 17.2
2020-Aug-04 17:00 193 2 gusting 5 17.2
2020-Aug-04 16:50 195 2 gusting 6 17.2
2020-Aug-04 16:40 186 2 gusting 6 17.8
2020-Aug-04 16:30 179 2 gusting 6 17.8
2020-Aug-04 16:20 177 2 gusting 7 17.8
2020-Aug-04 16:10 183 4 gusting 10 18.3
2020-Aug-04 16:00 176 3 gusting 7 18.3
2020-Aug-04 15:50 181 4 gusting 9 18.9
2020-Aug-04 15:40 184 3 gusting 10 18.9
2020-Aug-04 15:30 177 2 gusting 7 18.9
2020-Aug-04 15:20 187 3 gusting 9 18.9
2020-Aug-04 15:10 180 2 gusting 5 18.9
2020-Aug-04 15:00 182 2 gusting 6 18.9
2020-Aug-04 14:50 179 2 gusting 7 18.9
2020-Aug-04 14:40 194 1 gusting 5 19.4
2020-Aug-04 14:30 210 1 gusting 3 19.4
2020-Aug-04 14:20 179 2 gusting 5 19.4
2020-Aug-04 14:10 181 3 gusting 9 19.4
2020-Aug-04 14:00 185 2 gusting 8 20.0
2020-Aug-04 13:50 219 2 gusting 5 20.6
2020-Aug-04 13:40 218 2 gusting 4 20.0
2020-Aug-04 13:30 210 1 gusting 3 19.4
2020-Aug-04 13:20 196 1 gusting 5 20.0
2020-Aug-04 13:10 206 2 gusting 5 20.6
2020-Aug-04 13:00 201 0 gusting 2 20.0
2020-Aug-04 12:50 187 3 gusting 7 20.6
2020-Aug-04 12:40 193 1 gusting 5 20.6
2020-Aug-04 12:30 220 2 gusting 5 21.1
2020-Aug-04 12:20 195 2 gusting 6 20.6
2020-Aug-04 12:10 186 2 gusting 6 20.0
2020-Aug-04 12:00 216 1 gusting 3 20.0
2020-Aug-04 11:50 174 2 gusting 6 19.4
2020-Aug-04 11:40 192 2 gusting 5 20.6
2020-Aug-04 11:30 192 3 gusting 6 20.6
2020-Aug-04 11:20 189 3 gusting 6 20.6
2020-Aug-04 11:10 219 2 gusting 6 21.1
2020-Aug-04 11:00 211 2 gusting 4 20.0
2020-Aug-04 10:50 216 1 gusting 4 19.4
2020-Aug-04 10:40 206 2 gusting 5 19.4
2020-Aug-04 10:30 193 2 gusting 6 19.4
2020-Aug-04 10:20 188 2 gusting 8 18.9
2020-Aug-04 10:10 194 2 gusting 7 20.0
2020-Aug-04 10:00 198 3 gusting 6 20.0
2020-Aug-04 09:50 205 2 gusting 5 19.4
2020-Aug-04 09:40 213 2 gusting 6 19.4
2020-Aug-04 09:30 206 2 gusting 5 19.4
2020-Aug-04 09:20 206 3 gusting 6 18.9
2020-Aug-04 09:10 212 2 gusting 5 18.9
2020-Aug-04 09:00 206 2 gusting 6 18.9
2020-Aug-04 08:50 218 2 gusting 5 18.9
2020-Aug-04 08:40 218 1 gusting 4 18.3
2020-Aug-04 08:30 218 1 gusting 6 17.8
2020-Aug-04 08:20 217 2 gusting 5 18.9
2020-Aug-04 08:10 217 2 gusting 6 18.3
2020-Aug-04 08:00 218 2 gusting 5 17.8
2020-Aug-04 07:50 217 2 gusting 4 17.2
2020-Aug-04 07:40 217 1 gusting 4 16.7
2020-Aug-04 07:30 220 2 gusting 5 16.7
2020-Aug-04 07:20 214 2 gusting 6 16.7
2020-Aug-04 07:10 218 2 gusting 4 16.7
2020-Aug-04 07:00 214 2 gusting 5 16.1
2020-Aug-04 06:50 214 2 gusting 5 16.1
2020-Aug-04 06:40 215 1 gusting 3 15.0
2020-Aug-04 06:30 210 1 gusting 3 15.0
2020-Aug-04 06:20 212 1 gusting 4 15.0
2020-Aug-04 06:10 207 2 gusting 5 14.4
2020-Aug-04 06:00 211 1 gusting 3 14.4
2020-Aug-04 05:50 208 1 gusting 6 14.4
2020-Aug-04 05:40 215 1 gusting 3 14.4
2020-Aug-04 05:30 206 1 gusting 4 14.4
2020-Aug-04 05:20 218 1 gusting 4 14.4
2020-Aug-04 05:10 208 1 gusting 4 14.4
2020-Aug-04 05:00 217 1 gusting 3 14.4
2020-Aug-04 04:50 213 1 gusting 4 14.4
2020-Aug-04 04:40 219 1 gusting 3 15.0
2020-Aug-04 04:30 206 0 gusting 2 15.6
2020-Aug-04 04:20 214 15.6
2020-Aug-04 04:10 225 14.4
2020-Aug-04 04:00 215 1 gusting 3 15.0
2020-Aug-04 03:50 215 1 gusting 2 13.9
2020-Aug-04 03:40 222 1 gusting 3 13.3
2020-Aug-04 03:30 222 0 gusting 2 13.9
2020-Aug-04 03:20 234 13.3
2020-Aug-04 03:10 213 1 gusting 4 13.3
2020-Aug-04 03:00 217 1 gusting 3 13.3
2020-Aug-04 02:50 219 1 gusting 3 12.8
2020-Aug-04 02:40 222 1 gusting 2 12.8
2020-Aug-04 02:30 245 12.8
2020-Aug-04 02:20 223 1 gusting 4 12.2
2020-Aug-04 02:10 229 0 gusting 3 12.2
2020-Aug-04 02:00 227 1 gusting 3 12.8
2020-Aug-04 01:50 225 1 gusting 2 12.2
2020-Aug-04 01:40 228 0 gusting 2 12.2
2020-Aug-04 01:30 221 0 gusting 2 12.2
2020-Aug-04 01:20 226 1 gusting 2 12.8
2020-Aug-04 01:10 238 0 gusting 1 12.8
2020-Aug-04 01:00 229 0 gusting 3 12.8
2020-Aug-04 00:50 216 0 gusting 4 12.8
2020-Aug-04 00:40 225 12.8
2020-Aug-04 00:30 12.8
2020-Aug-04 00:20 212 13.3
2020-Aug-04 00:10 242 13.3
2020-Aug-04 00:00 221 0 gusting 2 13.3
2020-Aug-03 23:50 13.3
2020-Aug-03 23:40 220 0 gusting 2 13.9
2020-Aug-03 23:30 218 13.9
2020-Aug-03 23:20 223 1 gusting 2 13.9
2020-Aug-03 23:10 218 13.9
2020-Aug-03 23:00 226 0 gusting 1 13.9
2020-Aug-03 22:50 218 0 gusting 1 13.9
2020-Aug-03 22:40 234 13.9
2020-Aug-03 22:30 248 14.4
2020-Aug-03 22:20 264 14.4
2020-Aug-03 22:10 217 15.0
2020-Aug-03 22:00 221 1 gusting 3 15.0
2020-Aug-03 21:50 224 1 gusting 4 15.0
2020-Aug-03 21:40 218 2 gusting 5 15.6
2020-Aug-03 21:30 219 3 gusting 5 15.6
2020-Aug-03 21:20 221 2 gusting 3 15.6
2020-Aug-03 21:10 217 1 gusting 3 15.6
2020-Aug-03 21:00 216 1 gusting 3 15.6
2020-Aug-03 20:50 221 1 gusting 3 15.6
2020-Aug-03 20:40 213 1 gusting 4 15.6
2020-Aug-03 20:30 212 1 gusting 2 15.6
2020-Aug-03 20:20 211 1 gusting 3 15.6
2020-Aug-03 20:10 215 1 gusting 3 15.6
2020-Aug-03 20:00 216 1 gusting 3 15.6
2020-Aug-03 19:50 215 1 gusting 2 15.6
2020-Aug-03 19:40 219 1 gusting 4 15.6
2020-Aug-03 19:30 213 2 gusting 4 15.6
2020-Aug-03 19:20 217 1 gusting 3 15.6
2020-Aug-03 19:10 214 0 gusting 2 16.1
2020-Aug-03 19:00 215 2 gusting 5 16.1
2020-Aug-03 18:50 217 2 gusting 4 16.1
2020-Aug-03 18:40 212 1 gusting 4 16.7
2020-Aug-03 18:30 206 1 gusting 2 16.7
2020-Aug-03 18:20 212 1 gusting 3 16.7
2020-Aug-03 18:10 213 2 gusting 4 16.7
2020-Aug-03 18:00 210 2 gusting 5 16.7
2020-Aug-03 17:50 211 2 gusting 5 17.2
2020-Aug-03 17:40 211 2 gusting 5 17.2
2020-Aug-03 17:30 207 2 gusting 5 17.2
2020-Aug-03 17:20 214 3 gusting 7 17.8
2020-Aug-03 17:10 208 2 gusting 6 18.3
2020-Aug-03 17:00 213 3 gusting 5 18.3
2020-Aug-03 16:50 215 3 gusting 6 18.3
2020-Aug-03 16:40 206 2 gusting 5 18.9
2020-Aug-03 16:30 197 2 gusting 6 18.9
2020-Aug-03 16:20 203 1 gusting 3 18.9
2020-Aug-03 16:10 191 1 gusting 4 19.4
2020-Aug-03 16:00 183 1 gusting 5 19.4
2020-Aug-03 15:50 197 0 gusting 3 19.4
2020-Aug-03 15:40 192 1 gusting 5 19.4
2020-Aug-03 15:30 189 0 gusting 1 19.4
2020-Aug-03 15:20 185 2 gusting 9 19.4
2020-Aug-03 15:10 188 1 gusting 5 20.0
2020-Aug-03 15:00 184 2 gusting 6 20.0
2020-Aug-03 14:50 210 1 gusting 5 20.0
2020-Aug-03 14:40 204 1 gusting 5 20.0
2020-Aug-03 14:30 200 1 gusting 2 20.6
2020-Aug-03 14:20 204 0 gusting 3 20.0
2020-Aug-03 14:10 192 2 gusting 6 20.0
2020-Aug-03 14:00 198 1 gusting 5 19.4
2020-Aug-03 13:50 185 2 gusting 7 19.4
2020-Aug-03 13:40 179 0 gusting 3 20.0
2020-Aug-03 13:30 193 1 gusting 5 20.0
2020-Aug-03 13:20 222 1 gusting 3 20.6
2020-Aug-03 13:10 179 1 gusting 4 20.6
2020-Aug-03 13:00 222 1 gusting 3 21.1
2020-Aug-03 12:50 201 2 gusting 6 21.1
2020-Aug-03 12:40 185 2 gusting 5 20.6
2020-Aug-03 12:30 183 2 gusting 5 20.6
2020-Aug-03 12:20 189 1 gusting 5 20.6
2020-Aug-03 12:10 192 1 gusting 3 20.0
2020-Aug-03 12:00 210 1 gusting 3 20.0
2020-Aug-03 11:50 192 1 gusting 5 20.0
2020-Aug-03 11:40 208 0 gusting 4 20.0
2020-Aug-03 11:30 218 0 gusting 2 19.4
2020-Aug-03 11:20 201 1 gusting 4 18.9
2020-Aug-03 11:10 193 2 gusting 6 18.3
2020-Aug-03 11:00 194 1 gusting 4 17.2
2020-Aug-03 10:50 176 1 gusting 4 17.2
2020-Aug-03 10:40 191 1 gusting 3 17.2
2020-Aug-03 10:30 201 0 gusting 2 17.2
2020-Aug-03 10:20 164 0 gusting 3 17.2
2020-Aug-03 10:10 197 1 gusting 3 17.8
2020-Aug-03 10:00 179 0 gusting 3 16.7
2020-Aug-03 09:50 181 1 gusting 3 16.7
2020-Aug-03 09:40 199 16.7
2020-Aug-03 09:30 188 16.7
2020-Aug-03 09:20 212 0 gusting 2 17.2
2020-Aug-03 09:10 208 16.7
2020-Aug-03 09:00 217 0 gusting 2 17.2
2020-Aug-03 08:50 213 0 gusting 2 17.2
2020-Aug-03 08:40 197 0 gusting 3 17.8
2020-Aug-03 08:30 212 1 gusting 2 17.8
2020-Aug-03 08:20 209 1 gusting 3 17.8
2020-Aug-03 08:10 215 1 gusting 3 18.3
2020-Aug-03 08:00 220 1 gusting 4 18.9
2020-Aug-03 07:50 217 2 gusting 4 18.3
2020-Aug-03 07:40 209 1 gusting 2 18.3
2020-Aug-03 07:30 219 1 gusting 3 18.3
2020-Aug-03 07:20 208 0 gusting 3 18.3
2020-Aug-03 07:10 219 1 gusting 4 17.8
2020-Aug-03 07:00 216 1 gusting 3 17.8
2020-Aug-03 06:50 216 1 gusting 4 17.2
2020-Aug-03 06:40 224 1 gusting 5 17.2
2020-Aug-03 06:30 217 1 gusting 2 16.7
2020-Aug-03 06:20 179 0 gusting 4 16.1
2020-Aug-03 06:10 218 1 gusting 3 16.7
2020-Aug-03 06:00 217 0 gusting 2 16.1
2020-Aug-03 05:50 214 0 gusting 1 16.1
2020-Aug-03 05:40 220 0 gusting 2 16.7
2020-Aug-03 05:30 225 0 gusting 2 16.7
2020-Aug-03 05:20 222 16.1
2020-Aug-03 05:10 203 16.1
2020-Aug-03 05:00 224 15.6